Location: Karlsruhe
(49.0069°N, 8.4037°E)
Time: 17:25:13
(UTC+01:00)

ISS - Visible Passes

Search period start: 21 January 2018 00:00
Search period end: 31 January 2018 00:00
Orbit: 402 x 407 km, 51.6° (Epoch: 22 January)

Date Brightness Start Highest point End Pass type
(mag) Time Alt. Az. Time Alt. Az. Time Alt. Az.
25 Jan -1.0 19:45:52 10° SSW 19:46:17 13° SSW 19:46:17 13° SSW visible
26 Jan -2.1 18:54:09 10° S 18:56:24 20° SSE 18:56:24 20° SSE visible
27 Jan -1.5 18:03:06 10° SSE 18:04:31 12° SE 18:05:56 10° ESE visible
27 Jan -2.2 19:37:14 10° SW 19:39:06 30° SW 19:39:06 30° SW visible
28 Jan -3.0 18:45:06 10° SW 18:48:09 37° SSE 18:49:02 31° ESE visible
28 Jan -0.5 20:21:18 10° W 20:21:42 13° W 20:21:42 13° W visible
29 Jan -2.3 17:53:14 10° SSW 17:55:55 24° SE 17:58:36 10° E visible
29 Jan -3.3 19:28:51 10° WSW 19:31:34 58° W 19:31:34 58° W visible
30 Jan -3.8 18:36:30 10° WSW 18:39:44 69° SSE 18:41:23 26° ENE visible
30 Jan -0.9 20:13:05 10° W 20:14:02 17° WNW 20:14:02 17° WNW visible
